When you browse on this site, cookies collect data to enhance your experience and personalize the content and advertising you see.
Visit our Privacy Policy to learn more. By continuing to use the site, you agree to this use of cookies and data.
  • In Österreich
  • Länderverzeichnis
  • Für 7 Tage
  • Wassertemperatur
  • Satellitenkarten
  • Wetterkarte
  • News
  • Widgets
  • user-avatar
    Anmelden

    Stündliche Wetter Klagenfurt

    Heute, 24 März, Sonntag

    Zeit Temperatur Niederschläge Wind Luftdruck Luftfeuchtigkeit
    00:00 +6°C° 0 mm 0 m/S 695 mmHg 79%
    01:00 +7°C° 0 mm 1 m/S 695 mmHg 78%
    02:00 +7°C° 0 mm 1 m/S 694 mmHg 79%
    03:00 +6°C° 0 mm 1 m/S 694 mmHg 79%
    04:00 +6°C° 0 mm 1 m/S 694 mmHg 80%
    05:00 +6°C° 0 mm 1 m/S 694 mmHg 79%
    06:00 +7°C° 0 mm 1 m/S 694 mmHg 78%
    07:00 +7°C° 0 mm 1 m/S 694 mmHg 72%
    08:00 +10°C° 0 mm 1 m/S 694 mmHg 64%
    09:00 +13°C° 0 mm 1 m/S 694 mmHg 56%
    10:00 +15°C° 0 mm 0 m/S 694 mmHg 48%
    11:00 +18°C° 0 mm 1 m/S 694 mmHg 45%
    12:00 +19°C° 0 mm 1 m/S 694 mmHg 42%
    13:00 +19°C° 0 mm 1 m/S 694 mmHg 39%
    14:00 +19°C° 0 mm 1 m/S 693 mmHg 40%
    15:00 +19°C° 0 mm 1 m/S 693 mmHg 41%
    16:00 +18°C° 0 mm 1 m/S 692 mmHg 42%
    17:00 +15°C° 0 mm 1 m/S 691 mmHg 50%
    18:00 +13°C° 0 mm 1 m/S 691 mmHg 58%
    19:00 +11°C° 0 mm 1 m/S 690 mmHg 66%
    20:00 +10°C° 0 mm 1 m/S 690 mmHg 69%
    21:00 +9°C° 0 mm 1 m/S 690 mmHg 73%
    22:00 +9°C° 0 mm 1 m/S 690 mmHg 76%
    23:00 +9°C° 0 mm 1 m/S 690 mmHg 77%

    Morgen, 25 März, Montag

    Zeit Temperatur Niederschläge Wind Luftdruck Luftfeuchtigkeit
    00:00 +8°C° 0 mm 1 m/S 690 mmHg 78%
    01:00 +8°C° 0 mm 1 m/S 690 mmHg 80%
    02:00 +8°C° 0.1 mm 1 m/S 689 mmHg 81%
    03:00 +8°C° 0.1 mm 1 m/S 689 mmHg 83%
    04:00 +8°C° 0.1 mm 1 m/S 688 mmHg 84%
    05:00 +8°C° 0.2 mm 1 m/S 688 mmHg 85%
    06:00 +8°C° 0.2 mm 1 m/S 688 mmHg 85%
    07:00 +8°C° 0.2 mm 1 m/S 688 mmHg 85%
    08:00 +8°C° 0.4 mm 0 m/S 688 mmHg 82%
    09:00 +8°C° 0.4 mm 0 m/S 688 mmHg 80%
    10:00 +9°C° 0.4 mm 0 m/S 688 mmHg 78%
    11:00 +9°C° 0.6 mm 0 m/S 687 mmHg 78%
    12:00 +10°C° 0.6 mm 1 m/S 687 mmHg 79%
    13:00 +10°C° 0.6 mm 1 m/S 687 mmHg 80%
    14:00 +10°C° 1.6 mm 1 m/S 686 mmHg 83%
    15:00 +9°C° 1.6 mm 1 m/S 686 mmHg 86%
    16:00 +9°C° 1.6 mm 1 m/S 686 mmHg 89%
    17:00 +6°C° 4 mm 2 m/S 686 mmHg 87%
    18:00 +5°C° 4 mm 2 m/S 686 mmHg 84%
    19:00 +3°C° 4 mm 3 m/S 686 mmHg 82%
    20:00 +2°C° 1.2 mm 3 m/S 687 mmHg 84%
    21:00 +1°C° 1.2 mm 3 m/S 688 mmHg 85%
    22:00 +1°C° 1.2 mm 3 m/S 689 mmHg 87%
    23:00 +1°C° 0.4 mm 2 m/S 690 mmHg 87%

    übermorgen, 26 März, Dienstag

    Zeit Temperatur Niederschläge Wind Luftdruck Luftfeuchtigkeit
    00:00 +1°C° 0.4 mm 2 m/S 690 mmHg 88%
    01:00 -1°C° 0.4 mm 2 m/S 691 mmHg 88%
    02:00 -1°C° 0.1 mm 2 m/S 691 mmHg 88%
    03:00 -1°C° 0.1 mm 2 m/S 691 mmHg 87%
    04:00 -1°C° 0.1 mm 2 m/S 691 mmHg 86%
    05:00 -1°C° 0 mm 2 m/S 692 mmHg 84%
    06:00 -1°C° 0 mm 2 m/S 692 mmHg 82%
    07:00 -1°C° 0 mm 2 m/S 692 mmHg 80%
    08:00 +1°C° 0 mm 2 m/S 693 mmHg 73%
    09:00 +2°C° 0 mm 3 m/S 693 mmHg 66%
    10:00 +3°C° 0 mm 3 m/S 694 mmHg 58%
    11:00 +4°C° 0 mm 3 m/S 694 mmHg 54%
    12:00 +5°C° 0 mm 3 m/S 694 mmHg 50%
    13:00 +6°C° 0 mm 4 m/S 694 mmHg 47%
    14:00 +7°C° 0 mm 3 m/S 694 mmHg 47%
    15:00 +7°C° 0 mm 3 m/S 693 mmHg 47%
    16:00 +7°C° 0 mm 3 m/S 693 mmHg 47%
    17:00 +4°C° 0 mm 3 m/S 693 mmHg 55%
    18:00 +3°C° 0 mm 2 m/S 693 mmHg 63%
    19:00 +1°C° 0 mm 2 m/S 693 mmHg 70%
    20:00 +1°C° 0 mm 2 m/S 694 mmHg 72%
    21:00 -1°C° 0 mm 2 m/S 694 mmHg 74%
    22:00 0°C° 0 mm 1 m/S 694 mmHg 76%
    23:00 0°C° 0 mm 1 m/S 694 mmHg 77%

    27 März, Mittwoch

    Zeit Temperatur Niederschläge Wind Luftdruck Luftfeuchtigkeit
    00:00 -1°C° 0 mm 1 m/S 694 mmHg 78%
    01:00 -1°C° 0 mm 1 m/S 694 mmHg 79%
    02:00 -1°C° 0 mm 1 m/S 694 mmHg 78%
    03:00 -1°C° 0 mm 1 m/S 694 mmHg 78%
    04:00 -1°C° 0 mm 1 m/S 694 mmHg 77%
    05:00 0°C° 0 mm 1 m/S 694 mmHg 76%
    06:00 0°C° 0 mm 1 m/S 695 mmHg 74%
    07:00 +1°C° 0 mm 1 m/S 695 mmHg 73%
    08:00 +3°C° 0 mm 1 m/S 696 mmHg 66%
    09:00 +3°C° 0 mm 2 m/S 696 mmHg 60%
    10:00 +5°C° 0 mm 2 m/S 696 mmHg 53%
    11:00 +6°C° 0 mm 2 m/S 696 mmHg 52%
    12:00 +7°C° 0 mm 2 m/S 696 mmHg 52%
    13:00 +7°C° 0 mm 2 m/S 696 mmHg 51%
    14:00 +7°C° 0 mm 2 m/S 696 mmHg 52%
    15:00 +7°C° 0 mm 2 m/S 696 mmHg 52%
    16:00 +7°C° 0 mm 2 m/S 696 mmHg 53%
    17:00 +5°C° 0 mm 2 m/S 696 mmHg 60%
    18:00 +5°C° 0 mm 1 m/S 696 mmHg 67%
    19:00 +3°C° 0 mm 1 m/S 696 mmHg 74%
    20:00 +3°C° 0 mm 1 m/S 696 mmHg 76%
    21:00 +2°C° 0 mm 1 m/S 696 mmHg 78%
    22:00 +1°C° 0 mm 1 m/S 697 mmHg 80%
    23:00 +1°C° 0 mm 1 m/S 697 mmHg 82%

    28 März, Donnerstag

    Zeit Temperatur Niederschläge Wind Luftdruck Luftfeuchtigkeit
    00:00 0°C° 0 mm 1 m/S 697 mmHg 83%
    01:00 0°C° 0 mm 1 m/S 697 mmHg 84%
    02:00 0°C° 0 mm 1 m/S 697 mmHg 84%
    03:00 0°C° 0 mm 1 m/S 697 mmHg 84%
    04:00 0°C° 0 mm 1 m/S 696 mmHg 84%
    05:00 0°C° 0 mm 1 m/S 697 mmHg 81%
    06:00 +1°C° 0 mm 1 m/S 697 mmHg 78%
    07:00 +1°C° 0 mm 1 m/S 697 mmHg 75%
    08:00 +4°C° 0 mm 1 m/S 698 mmHg 68%
    09:00 +6°C° 0 mm 1 m/S 698 mmHg 60%
    10:00 +7°C° 0 mm 2 m/S 699 mmHg 53%
    11:00 +8°C° 0 mm 2 m/S 698 mmHg 52%
    12:00 +9°C° 0 mm 2 m/S 698 mmHg 51%
    13:00 +9°C° 0 mm 2 m/S 698 mmHg 50%
    14:00 +9°C° 0 mm 2 m/S 698 mmHg 51%
    15:00 +9°C° 0 mm 2 m/S 698 mmHg 52%
    16:00 +9°C° 0 mm 2 m/S 697 mmHg 53%
    17:00 +8°C° 0 mm 1 m/S 697 mmHg 61%
    18:00 +6°C° 0 mm 1 m/S 697 mmHg 70%
    19:00 +4°C° 0 mm 1 m/S 697 mmHg 78%
    20:00 +4°C° 0 mm 1 m/S 698 mmHg 80%
    21:00 +3°C° 0 mm 1 m/S 698 mmHg 82%
    22:00 +3°C° 0 mm 1 m/S 698 mmHg 83%
    23:00 +3°C° 0 mm 1 m/S 698 mmHg 84%

    29 März, Freitag

    Zeit Temperatur Niederschläge Wind Luftdruck Luftfeuchtigkeit
    00:00 +3°C° 0 mm 1 m/S 698 mmHg 85%
    01:00 +2°C° 0 mm 1 m/S 698 mmHg 87%
    02:00 +2°C° 0 mm 1 m/S 698 mmHg 88%
    03:00 +2°C° 0 mm 1 m/S 698 mmHg 89%
    04:00 +2°C° 0 mm 1 m/S 698 mmHg 90%
    05:00 +2°C° 0 mm 1 m/S 698 mmHg 89%
    06:00 +2°C° 0 mm 1 m/S 699 mmHg 87%
    07:00 +3°C° 0 mm 1 m/S 699 mmHg 85%
    08:00 +5°C° 0 mm 1 m/S 699 mmHg 76%
    09:00 +7°C° 0 mm 1 m/S 699 mmHg 67%
    10:00 +10°C° 0 mm 1 m/S 699 mmHg 58%
    11:00 +10°C° 0 mm 1 m/S 699 mmHg 56%
    12:00 +11°C° 0 mm 1 m/S 699 mmHg 53%
    13:00 +11°C° 0 mm 1 m/S 699 mmHg 51%
    14:00 +11°C° 0 mm 1 m/S 698 mmHg 51%
    15:00 +11°C° 0 mm 1 m/S 698 mmHg 51%
    16:00 +11°C° 0 mm 1 m/S 697 mmHg 51%
    17:00 +9°C° 0 mm 1 m/S 697 mmHg 59%
    18:00 +6°C° 0 mm 0 m/S 697 mmHg 66%
    19:00 +4°C° 0 mm 0 m/S 697 mmHg 74%
    20:00 +3°C° 0 mm 0 m/S 697 mmHg 76%
    21:00 +3°C° 0 mm 0 m/S 697 mmHg 78%
    22:00 +2°C° 0 mm 0 m/S 697 mmHg 79%
    23:00 +2°C° 0 mm 0 m/S 697 mmHg 81%
    Mehr zeigen